Location: Bay Harbour
(38.2612°N, 75.2555°W)
Time: 00:23:01
(UTC+00:00)

Cosmos 1455 - Pass Details

Date: 29 October 2020
Orbit: 499 x 521 km, 82.5° (Epoch: 02 December)

Event Time Altitude Azimuth Distance (km) Brightness Sun altitude
Rises 22:34:42 0° 152° (SSE) 2,593 5.6 -6.6°
Reaches altitude 10° 22:37:17 10° 133° (SE) 1,718 4.5 -7.1°
Maximum altitude 22:39:55 18° 88° (E) 1,284 3.6 -7.6°
Drops below altitude 10° 22:42:36 10° 43° (NE) 1,738 4.4 -8.1°
Sets 22:45:12 0° 25° (NNE) 2,635 5.4 -8.6°
